Baton Rouge, LA

4:24 AM CDT on September 16, 2019 (GMT -0500)
Baton Rouge Metro-Ryan

Weather History for KBTR - August, 2019

Change the Weather History Date:

Sunday, August 18, 2019

  Actual Average Record
Temperature  
Mean Temperature 85 °F 83 °F  
Max Temperature 93 °F 93 °F 101 °F (2011)
Min Temperature 77 °F 74 °F 64 °F (2004)
Degree Days  
Heating Degree Days 0 0  
Month to date heating degree days 0 0  
Since 1 June heating degree days 0 0  
Since 1 July heating degree days 0 0  
Cooling Degree Days 20 18  
Month to date cooling degree days 370 324  
Year to date cooling degree days 2104 1929  
Since 1 June cooling degree days 1433 1364  
Growing Degree Days 34 (Base 50)    
Moisture  
Dew Point 75 °F    
Average Humidity 75    
Maximum Humidity 94    
Minimum Humidity 56    
Precipitation  
Precipitation T in 0.19 in 2.23 in (2010)
Month to date precipitation 2.57 3.47  
Year to date precipitation 43.99 39.36  
Snow  
Snow 0.00 in - - ()
Month to date snowfall 0.0  
Since 1 June snowfall 0.0  
Since 1 July snowfall 0.0  
Snow Depth 0.00 in    
Sea Level Pressure  
Sea Level Pressure 29.97 in    
Wind  
Wind Speed 6 mph (SSW)    
Max Wind Speed 20 mph    
Max Gust Speed 27 mph    
Visibility 10 miles    
Events Thunderstorm    
T = Trace of Precipitation, MM = Missing Value Source: NWS Daily Summary

Daily Weather History Graph

Daily Weather History Graph

Search for Another Location

Airport or City:

Astronomy

Aug. 18, 2019 Rise Set
Actual Time 6:32 AM CDT 7:43 PM CDT
Civil Twilight 6:07 AM CDT 8:08 PM CDT
Nautical Twilight 5:37 AM CDT 8:38 PM CDT
Astronomical Twilight 5:06 AM CDT 9:09 PM CDT
Moon 9:49 PM CDT (8/18) 9:09 AM CDT (8/18)
Length of Visible Light 14h 00m
Length of Day
13h 10m
Waning Gibbous, 91% of the Moon is Illuminated
Aug 18
Waning Gibbous
Aug 23
Last Quarter
Aug 30
New
Sep 5
First Quarter
Sep 13
Full

Hourly Weather History & Observations

Time (CDT) Temp. Heat Index Dew Point Humidity Pressure Visibility Wind Dir Wind Speed Gust Speed Precip Events Conditions
12:53 AM 79.0 °F - 75.0 °F 88% 29.94 in 10.0 mi Calm Calm - N/A   Clear
1:53 AM 79.0 °F - 75.0 °F 88% 29.94 in 10.0 mi Calm Calm - N/A   Clear
2:53 AM 78.1 °F - 75.0 °F 90% 29.94 in 10.0 mi ENE 3.5 mph - N/A   Clear
3:53 AM 77.0 °F - 75.0 °F 94% 29.94 in 9.0 mi Calm Calm - N/A   Clear
4:53 AM 77.0 °F - 75.0 °F 94% 29.93 in 9.0 mi Calm Calm - N/A   Clear
5:53 AM 77.0 °F - 73.9 °F 90% 29.95 in 8.0 mi NE 3.5 mph - N/A   Clear
6:53 AM 77.0 °F - 75.0 °F 94% 29.97 in 8.0 mi Calm Calm - N/A   Overcast
7:53 AM 78.1 °F - 75.9 °F 93% 29.98 in 9.0 mi Calm Calm - 0.00 in   Mostly Cloudy
8:53 AM 82.9 °F 90.8 °F 75.9 °F 79% 29.99 in 10.0 mi WSW 5.8 mph - N/A   Mostly Cloudy
9:53 AM 86.0 °F 96.0 °F 75.9 °F 72% 29.99 in 10.0 mi SSW 8.1 mph - N/A   Mostly Cloudy
10:00 AM 86.0 °F 96.0 °F 75.9 °F 72% 29.99 in 10.0 mi SW 5.8 mph - N/A   Partly Cloudy
10:53 AM 89.1 °F 99.1 °F 75.0 °F 63% 29.99 in 10.0 mi WSW 8.1 mph - N/A   Clear
11:53 AM 90.0 °F 100.2 °F 75.0 °F 61% 29.99 in 10.0 mi WSW 6.9 mph - N/A   Mostly Cloudy
12:53 PM 91.9 °F 101.3 °F 73.9 °F 55% 29.98 in 10.0 mi SSW 6.9 mph - N/A   Mostly Cloudy
12:55 PM 91.9 °F 101.3 °F 73.9 °F 55% 29.99 in 10.0 mi SSW 6.9 mph - N/A   Partly Cloudy
1:48 PM 91.4 °F 102.5 °F 75.2 °F 59% 29.97 in 10.0 mi SSW 15.0 mph - N/A   Partly Cloudy
1:53 PM 91.0 °F 102.9 °F 75.9 °F 61% 29.96 in 10.0 mi SSW 13.8 mph - N/A   Partly Cloudy
2:43 PM 84.9 °F 91.4 °F 73.0 °F 67% 29.96 in 10.0 mi West 15.0 mph - N/A   Partly Cloudy
2:53 PM 84.0 °F 89.0 °F 71.1 °F 65% 29.96 in 10.0 mi West 9.2 mph - N/A   Partly Cloudy
3:53 PM 89.1 °F 99.1 °F 75.0 °F 63% 29.95 in 10.0 mi WSW 5.8 mph - N/A   Overcast
4:22 PM 90.0 °F 97.9 °F 73.0 °F 57% 29.96 in 10.0 mi South 15.0 mph - N/A Thunderstorm Thunderstorm
4:43 PM 90.0 °F 100.2 °F 75.0 °F 61% 29.95 in 10.0 mi South 12.7 mph - N/A   Mostly Cloudy
4:53 PM 90.0 °F 99.0 °F 73.9 °F 59% 29.95 in 10.0 mi South 11.5 mph - N/A   Mostly Cloudy
6:53 PM 86.0 °F 93.8 °F 73.9 °F 67% 29.96 in 10.0 mi South 12.7 mph - N/A   Clear
7:53 PM 84.0 °F 91.2 °F 73.9 °F 72% 29.97 in 10.0 mi SSE 6.9 mph - N/A   Scattered Clouds
8:53 PM 82.0 °F 87.4 °F 73.0 °F 74% 29.98 in 10.0 mi SSE 9.2 mph - N/A   Clear
9:53 PM 81.0 °F 86.2 °F 73.9 °F 79% 29.98 in 10.0 mi East 3.5 mph - N/A   Clear
10:53 PM 79.0 °F - 73.9 °F 84% 29.97 in 10.0 mi SE 4.6 mph - N/A   Clear
11:53 PM 79.0 °F - 75.0 °F 88% 29.97 in 10.0 mi South 6.9 mph - N/A   Clear